Weather reports worldwide

Advertisment
Jaen, Spain (8417): temperature & dewpoint: 15.05.2019 13:00:00 - 21.05.2019 13:00:00 (CEST)Jaen, Spain (8417): wind speed: 15.05.2019 13:00:00 - 21.05.2019 13:00:00 (CEST)Jaen, Spain (8417): wind direction: 15.05.2019 13:00:00 - 21.05.2019 13:00:00 (CEST)Jaen, Spain (8417): reduced air pressure: 15.05.2019 13:00:00 - 21.05.2019 13:00:00 (CEST)Jaen, Spain (8417): visibility: 15.05.2019 13:00:00 - 21.05.2019 13:00:00 (CEST)Jaen, Spain (8417): precipitation: 15.05.2019 13:00:00 - 21.05.2019 13:00:00 (CEST)
Date & Time tt [°C] td [°C] ff [km/h] ff [kn] dd ppp [hPa] vv [km] rr [mm]
21.05.2019 13:00:00 23,6 5,5 16 9 NNW 1013,2 20 0,0
21.05.2019 12:00:00 22,7 6,4 11 6 N 1013,5 20 0,0
21.05.2019 11:00:00 20,2 6,2 5 3 N 1014,2 20 -
21.05.2019 10:00:00 18,6 5,4 4 2 NE 1014,5 20 0,0
21.05.2019 09:00:00 16,4 5,0 4 2 NNE 1014,8 20 0,0
21.05.2019 08:00:00 14,0 4,0 4 2 WNW 1014,9 20 -
21.05.2019 07:00:00 12,8 3,2 4 2 WSW 1014,6 20 0,0
21.05.2019 06:00:00 13,5 3,6 5 3 S 1014,2 20 0,0
21.05.2019 05:00:00 14,3 3,4 2 1 WSW 1013,8 20 -
21.05.2019 04:00:00 15,7 3,5 8 4 S 1013,4 20 0,0
21.05.2019 03:00:00 16,9 3,2 8 4 S 1013,2 20 0,0
21.05.2019 02:00:00 18,6 2,4 5 3 ESE 1013,1 20 -
21.05.2019 01:00:00 19,3 2,6 16 9 W 1013,1 20 0,0
21.05.2019 00:00:00 19,5 2,8 21 11 W 1012,9 20 0,0
20.05.2019 23:00:00 20,1 -1,1 9 5 WSW 1012,4 20 -
20.05.2019 22:00:00 20,3 0,1 9 5 WSW 1011,5 20 0,0
20.05.2019 21:00:00 22,0 1,6 8 4 W 1010,6 20 0,0
20.05.2019 20:00:00 23,4 1,1 16 9 NW 1010,1 20 -
20.05.2019 19:00:00 24,4 2,5 13 7 W 1009,8 20 0,0
20.05.2019 18:00:00 24,5 2,0 15 8 WNW 1009,9 20 0,0
20.05.2019 17:00:00 24,2 2,3 15 8 WNW 1010,0 20 -
20.05.2019 16:00:00 23,6 4,5 15 8 WNW 1010,4 20 0,0
20.05.2019 15:00:00 23,8 5,2 15 8 WNW 1010,9 20 0,0
20.05.2019 14:00:00 22,8 5,2 18 10 NW 1011,2 20 -
20.05.2019 13:00:00 20,7 7,0 11 6 N 1012,0 20 0,0
20.05.2019 12:00:00 19,5 10,2 5 3 W 1012,7 20 0,0
20.05.2019 11:00:00 18,4 9,2 5 3 N 1013,1 20 -
20.05.2019 10:00:00 16,2 8,9 4 2 N 1013,6 20 0,0
20.05.2019 09:00:00 14,2 8,8 4 2 N 1013,7 20 0,0
20.05.2019 08:00:00 12,9 8,6 2 1 W 1013,7 19 -
20.05.2019 07:00:00 12,1 5,7 8 4 W 1013,3 20 0,0
20.05.2019 06:00:00 12,7 6,9 4 2 W 1013,2 20 0,0
20.05.2019 05:00:00 14,3 6,9 4 2 SW 1012,7 20 -
20.05.2019 04:00:00 15,8 6,2 4 2 NNE 1012,4 20 0,0
20.05.2019 03:00:00 15,2 8,0 4 2 SSE 1012,9 20 0,0
20.05.2019 02:00:00 16,5 8,5 2 1 ENE 1013,0 20 -
20.05.2019 01:00:00 16,8 7,7 13 7 WSW 1012,9 20 0,0
20.05.2019 00:00:00 17,0 9,2 15 8 WSW 1013,0 20 0,0
19.05.2019 23:00:00 17,7 7,7 13 7 W 1012,6 20 -
19.05.2019 22:00:00 18,6 -0,8 11 6 W 1011,5 20 0,0
19.05.2019 21:00:00 20,2 -1,0 11 6 WNW 1010,4 20 0,0
19.05.2019 20:00:00 21,4 -0,6 15 8 NW 1009,8 20 -
19.05.2019 19:00:00 22,4 -1,0 16 9 NW 1009,4 20 0,0
19.05.2019 18:00:00 21,7 0,8 15 8 NW 1009,8 20 0,0
19.05.2019 17:00:00 22,3 0,7 18 10 WNW 1010,3 20 -
19.05.2019 16:00:00 20,9 0,7 18 10 NNW 1011,0 20 0,0
19.05.2019 15:00:00 20,4 1,3 16 9 NW 1011,4 20 0,0
19.05.2019 14:00:00 19,4 1,4 13 7 NW 1012,0 20 -
19.05.2019 13:00:00 18,5 1,5 16 9 NW 1012,3 20 0,0
19.05.2019 12:00:00 17,5 2,2 9 5 W 1012,5 20 0,0
19.05.2019 11:00:00 16,7 1,1 9 5 WNW 1012,7 20 -
19.05.2019 10:00:00 15,5 1,2 5 3 E 1012,8 20 0,0
19.05.2019 09:00:00 13,4 1,7 4 2 E 1013,3 20 0,0
19.05.2019 08:00:00 11,6 1,2 5 3 WSW 1013,5 20 -
19.05.2019 07:00:00 12,2 1,2 9 5 WSW 1013,0 20 0,0
19.05.2019 06:00:00 12,5 0,6 9 5 WSW 1012,7 20 0,0
19.05.2019 05:00:00 13,0 0,0 15 8 W 1012,5 20 -
19.05.2019 04:00:00 13,6 -0,5 13 7 W 1012,4 20 0,0
19.05.2019 03:00:00 14,2 -1,1 15 8 W 1012,8 20 0,0
19.05.2019 02:00:00 14,5 -2,5 13 7 W 1013,0 20 -
19.05.2019 01:00:00 14,7 -3,6 11 6 W 1013,0 20 0,0
19.05.2019 00:00:00 15,1 -3,8 11 6 W 1013,1 20 0,0
18.05.2019 23:00:00 15,4 -4,0 11 6 W 1013,0 20 -
18.05.2019 22:00:00 16,1 -4,0 13 7 W 1012,5 20 0,0
18.05.2019 21:00:00 17,7 -2,6 9 5 NW 1011,5 20 0,0
18.05.2019 20:00:00 19,2 -4,3 21 11 NW 1010,6 20 -
18.05.2019 19:00:00 20,0 -3,7 22 12 NW 1009,9 20 0,0
18.05.2019 18:00:00 20,5 -4,7 21 11 NW 1009,6 20 0,0
18.05.2019 17:00:00 20,5 -3,9 21 11 NW 1009,6 20 -
18.05.2019 16:00:00 20,0 -4,4 24 13 NNW 1009,9 20 0,0
18.05.2019 15:00:00 18,9 -1,0 21 11 WNW 1010,6 20 0,0
18.05.2019 14:00:00 18,4 1,8 15 8 WNW 1010,7 20 -
18.05.2019 13:00:00 17,2 2,0 18 10 WNW 1011,3 20 0,0
18.05.2019 12:00:00 16,4 3,4 21 11 WNW 1011,4 20 0,0
18.05.2019 11:00:00 14,8 3,9 21 11 WNW 1011,8 20 -
18.05.2019 10:00:00 14,7 3,5 15 8 NW 1011,5 20 0,0
18.05.2019 09:00:00 12,5 3,2 16 9 WNW 1011,8 20 0,0
18.05.2019 08:00:00 11,7 2,9 13 7 WNW 1012,2 20 -
18.05.2019 07:00:00 11,6 2,1 8 4 SW 1011,5 20 0,0
18.05.2019 06:00:00 13,0 1,9 4 2 NNE 1010,8 20 0,0
18.05.2019 05:00:00 13,1 1,7 13 7 W 1011,1 20 -
18.05.2019 04:00:00 13,4 1,7 15 8 W 1011,6 20 0,0
18.05.2019 03:00:00 14,2 1,1 13 7 W 1011,8 20 0,0
18.05.2019 02:00:00 14,7 0,5 11 6 W 1012,3 20 -
18.05.2019 01:00:00 15,0 -0,8 9 5 W 1012,4 20 0,0
18.05.2019 00:00:00 15,0 -0,4 11 6 W 1012,7 20 0,0
17.05.2019 23:00:00 15,5 -1,1 15 8 W 1012,7 20 -
17.05.2019 22:00:00 16,2 -1,0 11 6 W 1011,8 20 0,0
17.05.2019 21:00:00 17,9 -0,9 16 9 NW 1010,9 20 0,0
17.05.2019 20:00:00 19,3 -0,7 18 10 NW 1010,2 20 -
17.05.2019 19:00:00 20,1 0,0 21 11 WNW 1010,0 20 0,0
17.05.2019 18:00:00 19,8 0,2 18 10 WNW 1010,5 20 0,0
17.05.2019 17:00:00 19,8 0,2 22 12 NW 1010,4 20 -
17.05.2019 16:00:00 20,1 1,0 15 8 WNW 1010,8 20 0,0
17.05.2019 15:00:00 18,9 0,9 18 10 WNW 1011,3 20 0,0
17.05.2019 14:00:00 18,0 1,0 18 10 WNW 1011,8 20 -
17.05.2019 13:00:00 16,2 2,6 18 10 WNW 1012,4 20 0,0
17.05.2019 12:00:00 15,1 2,9 22 12 NW 1012,7 20 0,0
17.05.2019 11:00:00 13,9 3,1 21 11 WNW 1012,8 20 -
17.05.2019 10:00:00 13,2 3,3 15 8 WNW 1013,0 20 0,0
17.05.2019 09:00:00 12,7 3,6 15 8 W 1013,1 20 0,0
17.05.2019 08:00:00 11,3 4,7 11 6 W 1013,0 20 -
17.05.2019 07:00:00 11,0 4,7 9 5 WNW 1012,4 20 0,0
17.05.2019 06:00:00 11,8 5,0 18 10 WNW 1011,6 20 0,0
17.05.2019 05:00:00 12,6 5,0 13 7 WNW 1010,9 20 -
17.05.2019 04:00:00 13,5 6,1 15 8 W 1010,3 20 0,0
17.05.2019 03:00:00 15,1 6,4 15 8 WNW 1009,9 20 0,0
17.05.2019 02:00:00 17,2 7,0 22 12 WNW 1009,6 20 -
17.05.2019 01:00:00 19,4 6,8 22 12 W 1008,5 20 0,0
17.05.2019 00:00:00 20,3 7,3 22 12 W 1008,2 20 0,0
16.05.2019 23:00:00 21,7 8,6 29 16 W 1007,5 20 -
16.05.2019 22:00:00 23,3 6,1 21 11 WSW 1006,3 20 0,0
16.05.2019 21:00:00 24,9 4,6 13 7 WSW 1005,6 20 0,0
16.05.2019 20:00:00 26,8 5,1 18 10 W 1005,2 20 -
16.05.2019 19:00:00 28,2 0,0 22 12 W 1004,9 20 0,0
16.05.2019 18:00:00 29,2 3,2 22 12 W 1005,0 20 0,0
16.05.2019 17:00:00 29,7 5,0 24 13 W 1005,2 20 -
16.05.2019 16:00:00 30,5 5,0 21 11 W 1005,4 20 0,0
16.05.2019 15:00:00 29,9 5,9 21 11 W 1006,3 20 0,0
16.05.2019 14:00:00 29,7 5,0 22 12 NW 1006,4 20 -
16.05.2019 13:00:00 29,2 6,5 18 10 WNW 1007,2 20 0,0
16.05.2019 12:00:00 - - - - - - - -
16.05.2019 11:00:00 24,5 8,4 5 3 N 1008,7 20 -
16.05.2019 10:00:00 21,8 8,0 4 2 N 1009,4 20 0,0
16.05.2019 09:00:00 20,0 7,0 4 2 N 1009,8 20 0,0
16.05.2019 08:00:00 18,9 6,4 2 1 N 1010,2 20 -
16.05.2019 07:00:00 19,6 6,7 2 1 WSW 1009,7 20 0,0
16.05.2019 06:00:00 20,5 6,8 4 2 WSW 1009,3 20 0,0
16.05.2019 05:00:00 20,8 5,6 4 2 S 1009,5 20 -
16.05.2019 04:00:00 22,3 6,1 5 3 S 1009,3 20 0,0
16.05.2019 03:00:00 21,9 5,7 4 2 WSW 1009,5 20 0,0
16.05.2019 02:00:00 25,7 5,8 4 2 NE 1008,9 20 -
16.05.2019 01:00:00 26,6 4,4 21 11 SW 1008,8 20 0,0
16.05.2019 00:00:00 26,5 6,5 16 9 W 1009,4 20 0,0
15.05.2019 23:00:00 27,2 5,5 9 5 WSW 1009,2 20 -
15.05.2019 22:00:00 27,7 6,4 13 7 WSW 1008,7 20 0,0
15.05.2019 21:00:00 28,5 6,6 8 4 W 1008,1 20 0,0
15.05.2019 20:00:00 30,8 5,9 11 6 NW 1007,4 20 -
15.05.2019 19:00:00 31,9 5,4 11 6 WNW 1007,4 20 0,0
15.05.2019 18:00:00 32,1 4,0 13 7 WNW 1007,6 20 0,0
15.05.2019 17:00:00 32,0 3,0 13 7 WNW 1007,9 20 -
15.05.2019 16:00:00 31,5 3,5 13 7 NW 1008,8 20 0,0
15.05.2019 15:00:00 30,6 4,3 16 9 NW 1009,5 20 0,0
15.05.2019 14:00:00 30,2 4,7 11 6 NW 1009,9 20 -
15.05.2019 13:00:00 28,9 6,9 5 3 N 1010,8 20 0,0

tt = temperature
td = dewpoint
ff = wind speed
dd = wind direction
ppp = reduced air pressure
vv = visibility
rr = precipitation

Next stations